F1IRU-13 VENDEUVRE DU POITOU FR current weather conditions

sailwx.info

Wind from 344 at 6 knots gusting 11

Air temperature 21.7° C
Dewpoint 16.2° C

Last reported at 2019-Sep-17 10:03 UTC.
Time now 2019-Sep-17 10:18 UTC

Location: N 46°44' E 000°18'.
View on Google Maps.

See reports from other nearby stations

  
Tides and Currents Weather Stations Pressure Air Temp Water Temp Dewpoint Dewpoint Depression Visibility Wind Speed Wind Dir Waves Ship Positions
date/time (UTC)wind fromknots sea level pressurealtimeterstation pressurevisibilityair tempwater tempwave heightnotes
2019-Sep-17 10:03 344 6 gusting 11 21.7
2019-Sep-17 09:58 023 6 gusting 11 21.1
2019-Sep-17 09:53 014 5 gusting 9 21.1
2019-Sep-17 09:48 030 5 gusting 9 21.1
2019-Sep-17 09:43 007 5 gusting 9 20.6
2019-Sep-17 09:38 023 5 gusting 9 20.6
2019-Sep-17 09:33 050 5 gusting 9 20.6
2019-Sep-17 09:28 005 5 gusting 9 20.6
2019-Sep-17 09:23 033 4 gusting 9 20.0
2019-Sep-17 09:18 359 4 gusting 10 20.0
2019-Sep-17 09:13 047 4 gusting 10 19.4
2019-Sep-17 09:08 009 4 gusting 7 19.4
2019-Sep-17 09:03 019 4 gusting 7 19.4
2019-Sep-17 08:58 020 4 gusting 9 19.4
2019-Sep-17 08:53 020 5 gusting 9 18.9
2019-Sep-17 08:48 030 4 gusting 7 18.9
2019-Sep-17 08:43 020 3 gusting 6 18.3
2019-Sep-17 08:38 008 4 gusting 8 18.3
2019-Sep-17 08:33 032 4 gusting 8 17.8
2019-Sep-17 08:28 029 4 gusting 7 17.8
2019-Sep-17 08:23 039 5 gusting 8 17.8
2019-Sep-17 08:18 025 6 gusting 10 17.2
2019-Sep-17 08:13 049 6 gusting 10 17.2
2019-Sep-17 08:08 060 5 gusting 9 17.2
2019-Sep-17 08:03 045 6 gusting 11 16.7
2019-Sep-17 07:58 051 6 gusting 11 16.7
2019-Sep-17 07:53 058 6 gusting 10 16.7
2019-Sep-17 07:48 039 6 gusting 10 16.7
2019-Sep-17 07:43 055 5 gusting 10 16.1
2019-Sep-17 07:38 021 4 gusting 9 16.1
2019-Sep-17 07:33 028 4 gusting 7 16.1
2019-Sep-17 07:28 043 4 gusting 7 15.6
2019-Sep-17 07:23 036 3 gusting 6 15.6
2019-Sep-17 07:18 024 4 gusting 7 15.6
2019-Sep-17 07:13 018 4 gusting 7 15.0
2019-Sep-17 07:08 011 3 gusting 6 15.0
2019-Sep-17 07:03 017 3 gusting 6 15.0
2019-Sep-17 06:58 019 2 gusting 5 14.4
2019-Sep-17 06:53 017 1 gusting 5 14.4
2019-Sep-17 06:48 020 1 gusting 5 14.4
2019-Sep-17 06:43 023 1 gusting 4 14.4
2019-Sep-17 06:38 016 1 gusting 5 13.9
2019-Sep-17 06:33 003 1 gusting 5 13.9
2019-Sep-17 06:28 013 2 gusting 6 13.9
2019-Sep-17 06:23 017 2 gusting 6 13.9
2019-Sep-17 06:18 013 2 gusting 6 13.9
2019-Sep-17 06:13 010 2 gusting 5 13.9
2019-Sep-17 06:08 012 2 gusting 6 13.9
2019-Sep-17 06:03 026 3 gusting 6 13.9
2019-Sep-17 05:58 030 3 gusting 6 13.9
2019-Sep-17 05:53 022 2 gusting 6 13.9
2019-Sep-17 05:48 020 3 gusting 6 13.3
2019-Sep-17 05:43 014 3 gusting 6 13.9
2019-Sep-17 05:38 005 3 gusting 6 13.9
2019-Sep-17 05:33 015 3 gusting 6 13.9
2019-Sep-17 05:28 011 3 gusting 6 13.9
2019-Sep-17 05:23 013 2 gusting 6 13.9
2019-Sep-17 05:18 014 2 gusting 6 13.9
2019-Sep-17 05:13 034 2 gusting 6 13.9
2019-Sep-17 05:08 015 2 gusting 6 13.9
2019-Sep-17 05:03 009 2 gusting 6 13.9
2019-Sep-17 04:58 008 2 gusting 6 13.9
2019-Sep-17 04:53 012 2 gusting 6 13.9
2019-Sep-17 04:48 020 2 gusting 6 13.9
2019-Sep-17 04:43 020 2 gusting 5 14.4
2019-Sep-17 04:38 014 2 gusting 6 14.4
2019-Sep-17 04:33 010 2 gusting 6 14.4
2019-Sep-17 04:28 016 2 gusting 4 14.4
2019-Sep-17 04:23 026 2 gusting 4 14.4
2019-Sep-17 04:18 017 1 gusting 4 14.4
2019-Sep-17 04:13 009 1 gusting 3 14.4
2019-Sep-17 04:08 014 0 gusting 2 14.4
2019-Sep-17 04:03 014 0 gusting 3 14.4
2019-Sep-17 03:58 014 1 gusting 3 14.4
2019-Sep-17 03:53 014 1 gusting 3 14.4
2019-Sep-17 03:48 014 1 gusting 5 14.4
2019-Sep-17 03:43 020 2 gusting 6 14.4
2019-Sep-17 03:38 012 2 gusting 6 15.0
2019-Sep-17 03:33 010 2 gusting 6 15.0
2019-Sep-17 03:28 013 2 gusting 6 15.0
2019-Sep-17 03:23 013 2 gusting 6 15.0
2019-Sep-17 03:18 011 2 gusting 6 15.0
2019-Sep-17 03:13 010 2 gusting 6 15.0
2019-Sep-17 03:08 006 2 gusting 6 15.0
2019-Sep-17 03:03 011 2 gusting 6 15.0
2019-Sep-17 02:58 018 2 gusting 6 15.6
2019-Sep-17 02:53 023 2 gusting 5 15.6
2019-Sep-17 02:48 006 2 gusting 4 15.6
2019-Sep-17 02:43 019 1 gusting 6 15.6
2019-Sep-17 02:38 018 1 gusting 6 15.6
2019-Sep-17 02:33 019 1 gusting 2 15.6
2019-Sep-17 02:28 017 1 gusting 2 15.6
2019-Sep-17 02:23 016 1 gusting 3 15.6
2019-Sep-17 02:18 016 1 gusting 5 15.6
2019-Sep-17 02:13 014 2 gusting 5 16.1
2019-Sep-17 02:08 014 2 gusting 6 16.1
2019-Sep-17 02:03 016 2 gusting 6 16.1
2019-Sep-17 01:58 014 2 gusting 6 16.1
2019-Sep-17 01:53 009 2 gusting 6 16.1
2019-Sep-17 01:48 024 2 gusting 6 16.1
2019-Sep-17 01:43 010 3 gusting 6 16.1
2019-Sep-17 01:38 010 3 gusting 6 16.1
2019-Sep-17 01:33 012 2 gusting 6 16.1
2019-Sep-17 01:28 015 2 gusting 5 16.7
2019-Sep-17 01:23 012 2 gusting 5 16.7
2019-Sep-17 01:18 012 2 gusting 6 16.7
2019-Sep-17 01:13 011 2 gusting 6 16.7
2019-Sep-17 01:08 014 2 gusting 6 16.7
2019-Sep-17 01:03 008 3 gusting 6 16.7
2019-Sep-17 00:58 012 2 gusting 6 16.7
2019-Sep-17 00:53 016 2 gusting 6 16.7
2019-Sep-17 00:48 012 3 gusting 6 16.7
2019-Sep-17 00:43 005 3 gusting 6 17.2
2019-Sep-17 00:38 013 3 gusting 6 17.2
2019-Sep-17 00:33 010 3 gusting 4 17.2
2019-Sep-17 00:28 013 3 gusting 6 17.2
2019-Sep-17 00:23 012 3 gusting 6 17.8
2019-Sep-17 00:18 018 2 gusting 6 17.8
2019-Sep-17 00:13 014 2 gusting 6 17.8
2019-Sep-17 00:08 013 2 gusting 6 18.3
2019-Sep-17 00:03 011 2 gusting 5 18.3
2019-Sep-16 23:58 015 2 gusting 6 17.8
2019-Sep-16 23:53 010 2 gusting 6 18.3
2019-Sep-16 23:48 015 2 gusting 4 18.3
2019-Sep-16 23:43 012 2 gusting 4 18.3
2019-Sep-16 23:38 012 2 gusting 4 18.3
2019-Sep-16 23:33 012 2 gusting 6 18.3
2019-Sep-16 23:28 012 3 gusting 6 18.9
2019-Sep-16 23:23 012 2 gusting 6 18.9
2019-Sep-16 23:18 010 3 gusting 6 18.9
2019-Sep-16 23:13 010 3 gusting 7 19.4
2019-Sep-16 23:08 027 3 gusting 7 19.4
2019-Sep-16 23:03 003 2 gusting 6 18.9
2019-Sep-16 22:58 012 2 gusting 4 19.4
2019-Sep-16 22:53 012 3 gusting 5 19.4
2019-Sep-16 22:48 014 2 gusting 5 19.4
2019-Sep-16 22:43 027 1 gusting 5 19.4
2019-Sep-16 22:38 028 1 gusting 2 19.4
2019-Sep-16 22:33 028 1 gusting 2 19.4
2019-Sep-16 22:28 028 1 gusting 2 19.4
2019-Sep-16 22:23 028 1 gusting 2 20.0
2019-Sep-16 22:18 028 1 gusting 2 20.0
2019-Sep-16 22:13 028 1 gusting 3 20.0
2019-Sep-16 22:08 028 1 gusting 3 20.6
2019-Sep-16 22:03 028 1 gusting 3 20.6
2019-Sep-16 21:58 028 1 gusting 3 20.6
2019-Sep-16 21:53 028 1 gusting 3 20.6
2019-Sep-16 21:48 032 1 gusting 3 20.6
2019-Sep-16 21:43 030 1 gusting 3 20.6
2019-Sep-16 21:33 030 2 gusting 3 20.6
2019-Sep-16 21:28 030 2 gusting 5 20.6
2019-Sep-16 21:23 030 2 gusting 5 21.1
2019-Sep-16 21:18 028 2 gusting 5 21.1
2019-Sep-16 21:13 016 1 gusting 4 21.7
2019-Sep-16 21:08 010 1 gusting 4 21.7
2019-Sep-16 21:03 010 2 gusting 4 21.7
2019-Sep-16 20:58 014 2 gusting 6 21.7
2019-Sep-16 20:53 017 2 gusting 6 21.7
2019-Sep-16 20:48 017 2 gusting 3 21.7
2019-Sep-16 20:43 014 1 gusting 3 21.7
2019-Sep-16 20:38 014 1 gusting 3 21.7
2019-Sep-16 20:33 014 1 gusting 3 21.7
2019-Sep-16 20:28 014 1 gusting 3 22.2
2019-Sep-16 20:23 014 1 gusting 2 22.2
2019-Sep-16 20:18 014 1 gusting 3 22.2
2019-Sep-16 20:13 014 2 gusting 6 22.8
2019-Sep-16 20:08 014 2 gusting 6 22.8
2019-Sep-16 20:02 017 2 gusting 5 22.8
2019-Sep-16 19:57 016 2 gusting 5 22.8
2019-Sep-16 19:52 018 2 gusting 5 22.8
2019-Sep-16 19:47 018 2 gusting 5 22.8
2019-Sep-16 19:42 018 1 gusting 5 22.8
2019-Sep-16 19:37 018 1 gusting 2 22.8
2019-Sep-16 19:32 018 1 gusting 2 22.8
2019-Sep-16 19:27 018 1 gusting 2 23.3
2019-Sep-16 19:22 018 1 gusting 2 23.3
2019-Sep-16 19:17 018 1 gusting 2 23.3
2019-Sep-16 19:12 018 0 gusting 2 23.9
2019-Sep-16 19:07 018 1 gusting 2 23.9
2019-Sep-16 19:02 018 1 gusting 2 23.9
2019-Sep-16 18:57 018 1 gusting 2 23.9
2019-Sep-16 18:52 018 1 gusting 2 24.4
2019-Sep-16 18:47 018 1 gusting 2 24.4
2019-Sep-16 18:42 018 1 gusting 2 24.4
2019-Sep-16 18:37 018 1 gusting 2 24.4
2019-Sep-16 18:32 018 1 gusting 2 25.0
2019-Sep-16 18:27 018 1 gusting 2 25.0
2019-Sep-16 18:22 018 1 gusting 2 25.6
2019-Sep-16 18:17 018 1 gusting 2 25.6
2019-Sep-16 18:12 018 1 gusting 2 26.1
2019-Sep-16 18:07 018 1 gusting 2 26.7
2019-Sep-16 18:02 018 1 gusting 2 26.7
2019-Sep-16 17:57 018 1 gusting 2 27.2
2019-Sep-16 17:52 018 1 gusting 3 27.8
2019-Sep-16 17:47 018 1 gusting 3 28.3
2019-Sep-16 17:42 018 0 gusting 2 28.3
2019-Sep-16 17:37 018 0 gusting 2 28.9
2019-Sep-16 17:32 018 1 gusting 5 28.9
2019-Sep-16 17:27 018 1 gusting 5 29.4
2019-Sep-16 17:22 016 2 gusting 5 29.4
2019-Sep-16 17:17 017 2 gusting 5 29.4
2019-Sep-16 17:12 018 2 gusting 5 29.4
2019-Sep-16 17:07 018 2 gusting 5 30.0
2019-Sep-16 17:02 024 2 gusting 6 30.0
2019-Sep-16 16:57 010 3 gusting 6 30.0
2019-Sep-16 16:52 011 3 gusting 6 30.6
2019-Sep-16 16:47 047 3 gusting 6 30.6
2019-Sep-16 16:42 011 3 gusting 7 30.6
2019-Sep-16 16:37 022 4 gusting 7 30.6
2019-Sep-16 16:32 357 3 gusting 7 30.6
2019-Sep-16 16:27 023 3 gusting 6 30.6
2019-Sep-16 16:22 030 3 gusting 6 30.6
2019-Sep-16 16:17 017 3 gusting 6 30.6
2019-Sep-16 16:12 005 4 gusting 6 30.6
2019-Sep-16 16:07 357 4 gusting 7 31.1
2019-Sep-16 16:02 018 4 gusting 7 31.1
2019-Sep-16 15:57 012 3 gusting 6 31.1
2019-Sep-16 15:52 008 3 gusting 8 31.1
2019-Sep-16 15:47 354 3 gusting 8 31.1
2019-Sep-16 15:42 022 3 gusting 8 31.7
2019-Sep-16 15:37 012 3 gusting 8 31.1
2019-Sep-16 15:32 005 3 gusting 6 31.7
2019-Sep-16 15:27 012 3 gusting 8 31.7
2019-Sep-16 15:22 338 4 gusting 8 31.7
2019-Sep-16 15:17 046 3 gusting 8 31.7
2019-Sep-16 15:12 012 3 gusting 7 31.7
2019-Sep-16 15:07 063 3 gusting 7 31.7
2019-Sep-16 15:02 022 4 gusting 9 31.1
2019-Sep-16 14:57 025 4 gusting 9 31.1
2019-Sep-16 14:52 357 3 gusting 6 31.7
2019-Sep-16 14:47 041 3 gusting 8 31.1
2019-Sep-16 14:42 357 4 gusting 9 31.1
2019-Sep-16 14:37 338 5 gusting 9 31.7
2019-Sep-16 14:32 054 5 gusting 9 31.7
2019-Sep-16 14:27 330 5 gusting 9 31.7
2019-Sep-16 14:22 064 5 gusting 10 31.7
2019-Sep-16 14:17 013 4 gusting 10 31.7
2019-Sep-16 14:12 055 2 gusting 6 31.7
2019-Sep-16 14:07 008 3 gusting 7 31.7
2019-Sep-16 14:02 049 4 gusting 11 31.7
2019-Sep-16 13:57 068 3 gusting 11 31.1
2019-Sep-16 13:52 062 3 gusting 8 31.1
2019-Sep-16 13:47 004 2 gusting 7 31.1
2019-Sep-16 13:42 048 2 gusting 9 31.1
2019-Sep-16 13:37 027 3 gusting 9 31.1
2019-Sep-16 13:32 046 3 gusting 9 30.6
2019-Sep-16 13:27 016 3 gusting 9 30.6
2019-Sep-16 13:22 008 3 gusting 8 30.6
2019-Sep-16 13:17 005 2 gusting 8 30.6
2019-Sep-16 13:12 336 3 gusting 8 30.6
2019-Sep-16 13:07 328 3 gusting 8 30.6
2019-Sep-16 13:02 023 3 gusting 8 30.6
2019-Sep-16 12:57 026 3 gusting 8 30.6
2019-Sep-16 12:52 057 4 gusting 7 30.6
2019-Sep-16 12:47 004 4 gusting 7 30.6
2019-Sep-16 12:42 348 3 gusting 7 30.6
2019-Sep-16 12:37 037 3 gusting 7 30.6
2019-Sep-16 12:32 050 3 gusting 8 30.6
2019-Sep-16 12:27 060 3 gusting 9 30.6
2019-Sep-16 12:22 059 3 gusting 9 30.6
2019-Sep-16 12:17 066 2 gusting 7 30.6
2019-Sep-16 12:12 077 2 gusting 7 30.6
2019-Sep-16 12:07 071 2 gusting 7 30.6
2019-Sep-16 12:02 067 2 gusting 7 30.0
2019-Sep-16 11:57 066 3 gusting 8 30.0
2019-Sep-16 11:52 062 2 gusting 8 30.0
2019-Sep-16 11:47 078 3 gusting 8 29.4
2019-Sep-16 11:42 038 3 gusting 9 29.4
2019-Sep-16 11:37 068 3 gusting 9 29.4
2019-Sep-16 11:32 045 5 gusting 9 29.4
2019-Sep-16 11:27 046 3 gusting 10 29.4
2019-Sep-16 11:22 044 3 gusting 10 28.9
2019-Sep-16 11:17 024 4 gusting 8 28.9
2019-Sep-16 11:12 057 4 gusting 8 28.9
2019-Sep-16 11:07 050 5 gusting 10 28.3
2019-Sep-16 11:02 066 5 gusting 10 28.3
2019-Sep-16 10:57 040 5 gusting 9 28.3
2019-Sep-16 10:52 074 4 gusting 9 27.8
2019-Sep-16 10:47 049 3 gusting 8 27.8
2019-Sep-16 10:42 057 3 gusting 8 27.8
2019-Sep-16 10:37 010 4 gusting 7 27.2
2019-Sep-16 10:32 045 3 gusting 8 27.2
2019-Sep-16 10:27 037 3 gusting 8 27.2
2019-Sep-16 10:22 049 4 gusting 7 26.7
2019-Sep-16 10:17 065 3 gusting 7 26.7
2019-Sep-16 10:12 041 3 gusting 7 26.1
2019-Sep-16 10:07 061 4 gusting 7 25.6
2019-Sep-16 10:02 047 4 gusting 7 25.6
2019-Sep-16 09:57 046 3 gusting 7 25.6
2019-Sep-16 09:52 058 2 gusting 7 25.0
2019-Sep-16 09:47 059 1 gusting 6 25.0
2019-Sep-16 09:42 062 1 gusting 6 24.4
2019-Sep-16 09:37 051 2 gusting 6 23.9
2019-Sep-16 09:32 049 2 gusting 6 23.9
2019-Sep-16 09:27 043 1 gusting 5 23.3
2019-Sep-16 09:22 026 1 gusting 3 23.3
2019-Sep-16 09:17 020 1 gusting 3 22.8
2019-Sep-16 09:12 014 2 gusting 5 22.2
2019-Sep-16 09:07 028 2 gusting 6 22.2
2019-Sep-16 09:02 049 3 gusting 6 21.7
2019-Sep-16 08:57 035 3 gusting 6 21.7
2019-Sep-16 08:52 047 3 gusting 6 21.7
2019-Sep-16 08:47 358 2 gusting 6 21.1
2019-Sep-16 08:42 010 2 gusting 5 20.6
2019-Sep-16 08:37 020 2 gusting 5 20.6
2019-Sep-16 08:32 046 1 gusting 3 20.6
2019-Sep-16 08:27 046 1 gusting 3 20.0
2019-Sep-16 08:22 047 1 gusting 3 20.0
2019-Sep-16 08:17 048 1 gusting 6 19.4
2019-Sep-16 08:12 049 2 gusting 6 19.4
2019-Sep-16 08:07 008 2 gusting 6 19.4
2019-Sep-16 08:02 005 2 gusting 6 18.9
2019-Sep-16 07:57 020 2 gusting 5 18.9
2019-Sep-16 07:52 003 2 gusting 6 18.3
2019-Sep-16 07:47 016 2 gusting 6 18.3
2019-Sep-16 07:42 022 2 gusting 6 17.8
2019-Sep-16 07:37 031 1 gusting 6 17.8
2019-Sep-16 07:32 025 0 gusting 3 17.8
2019-Sep-16 07:27 028 0 gusting 3 17.2
2019-Sep-16 07:22 028 1 gusting 7 17.2
2019-Sep-16 07:17 006 2 gusting 7 16.7
2019-Sep-16 07:12 012 2 gusting 4 16.7
2019-Sep-16 07:07 014 1 gusting 3 16.1
2019-Sep-16 07:02 014 0 gusting 1 16.1
2019-Sep-16 06:57 014 0 gusting 3 15.6
2019-Sep-16 06:52 014 1 gusting 4 15.6
2019-Sep-16 06:47 014 2 gusting 4 15.6
2019-Sep-16 06:42 014 2 gusting 4 15.0
2019-Sep-16 06:37 014 1 gusting 3 15.0
2019-Sep-16 06:32 018 1 gusting 3 14.4
2019-Sep-16 06:27 027 0 gusting 3 14.4
2019-Sep-16 06:22 027 0 gusting 2 14.4
2019-Sep-16 06:17 027 15.0
2019-Sep-16 06:12 027 15.0
2019-Sep-16 06:07 027 15.0
2019-Sep-16 06:02 027 15.0
2019-Sep-16 05:57 027 15.0
2019-Sep-16 05:52 027 15.0
2019-Sep-16 05:47 027 15.0
2019-Sep-16 05:42 027 15.0
2019-Sep-16 05:37 027 15.0
2019-Sep-16 05:32 027 15.0
2019-Sep-16 05:27 027 15.0
2019-Sep-16 05:22 027 0 gusting 1 15.0
2019-Sep-16 05:17 027 0 gusting 2 15.0
2019-Sep-16 05:12 027 1 gusting 2 15.0
2019-Sep-16 05:07 027 1 gusting 2 15.0
2019-Sep-16 05:02 027 0 gusting 1 15.0
2019-Sep-16 04:57 027 15.0
2019-Sep-16 04:52 027 0 gusting 1 15.0
2019-Sep-16 04:47 027 0 gusting 1 15.6
2019-Sep-16 04:42 027 15.6
2019-Sep-16 04:37 027 15.6
2019-Sep-16 04:32 027 15.6
2019-Sep-16 04:27 027 15.6
2019-Sep-16 04:21 027 15.6
2019-Sep-16 04:17 027 15.6
2019-Sep-16 04:12 027 15.6
2019-Sep-16 04:07 027 0 gusting 2 15.6
2019-Sep-16 04:01 027 1 gusting 2 15.6
2019-Sep-16 03:56 027 0 gusting 2 15.6
2019-Sep-16 03:52 028 15.6
2019-Sep-16 03:46 028 15.6
2019-Sep-16 03:41 028 15.6
2019-Sep-16 03:36 028 15.6
2019-Sep-16 03:31 028 16.1
2019-Sep-16 03:26 028 16.1
2019-Sep-16 03:21 028 16.1
2019-Sep-16 03:16 028 16.1
2019-Sep-16 03:11 028 16.7
2019-Sep-16 03:06 028 16.7
2019-Sep-16 03:01 028 16.7
2019-Sep-16 02:56 028 16.7
2019-Sep-16 02:51 028 0 gusting 1 16.7
2019-Sep-16 02:46 028 0 gusting 2 16.7
2019-Sep-16 02:41 028 0 gusting 2 16.7
2019-Sep-16 02:36 028 0 gusting 1 16.7
2019-Sep-16 02:31 028 0 gusting 1 16.7
2019-Sep-16 02:26 028 16.7
2019-Sep-16 02:21 028 16.7
2019-Sep-16 02:16 028 0 gusting 2 16.7
2019-Sep-16 02:11 028 0 gusting 2 17.2
2019-Sep-16 02:06 028 0 gusting 2 17.2
2019-Sep-16 02:01 028 1 gusting 2 17.2
2019-Sep-16 01:56 028 1 gusting 3 17.2
2019-Sep-16 01:51 028 2 gusting 5 17.8
2019-Sep-16 01:46 028 2 gusting 5 17.8
2019-Sep-16 01:41 020 2 gusting 3 17.2
2019-Sep-16 01:36 018 1 gusting 3 17.2
2019-Sep-16 01:31 018 0 gusting 1 17.2
2019-Sep-16 01:26 018 0 gusting 3 17.2
2019-Sep-16 01:21 018 1 gusting 3 17.8
2019-Sep-16 01:16 018 1 gusting 3 17.8
2019-Sep-16 01:11 018 1 gusting 3 17.8
2019-Sep-16 01:06 018 1 gusting 3 17.8
2019-Sep-16 01:01 018 2 gusting 3 17.8
2019-Sep-16 00:56 018 2 gusting 3 17.8
2019-Sep-16 00:51 018 2 gusting 3 17.8
2019-Sep-16 00:46 017 1 gusting 3 17.8
2019-Sep-16 00:41 017 2 gusting 3 17.8
2019-Sep-16 00:36 018 2 gusting 3 18.3
2019-Sep-16 00:31 017 2 gusting 3 18.3
2019-Sep-16 00:26 017 0 gusting 3 17.8
2019-Sep-16 00:21 017 0 gusting 2 17.8
2019-Sep-16 00:16 017 0 gusting 2 18.3
2019-Sep-16 00:11 017 0 gusting 2 18.3
2019-Sep-16 00:06 017 1 gusting 2 18.3
2019-Sep-16 00:01 017 1 gusting 3 18.3
2019-Sep-15 23:56 017 1 gusting 3 18.3
2019-Sep-15 23:51 017 1 gusting 2 18.9
2019-Sep-15 23:46 017 2 gusting 2 18.9
2019-Sep-15 23:41 017 2 gusting 3 18.9
2019-Sep-15 23:36 017 1 gusting 3 18.9
2019-Sep-15 23:31 017 1 gusting 2 18.9
2019-Sep-15 23:26 017 1 gusting 3 18.9
2019-Sep-15 23:21 017 1 gusting 3 19.4
2019-Sep-15 23:16 017 1 gusting 2 19.4
2019-Sep-15 23:11 017 1 gusting 2 19.4
2019-Sep-15 23:06 017 1 gusting 2 19.4
2019-Sep-15 23:01 017 1 gusting 2 19.4
2019-Sep-15 22:56 017 1 gusting 2 19.4
2019-Sep-15 22:51 017 1 gusting 2 19.4
2019-Sep-15 22:46 017 1 gusting 5 19.4
2019-Sep-15 22:41 017 2 gusting 5 19.4
2019-Sep-15 22:36 017 2 gusting 5 19.4
2019-Sep-15 22:31 016 2 gusting 5 19.4
2019-Sep-15 22:26 016 2 gusting 5 20.0
2019-Sep-15 22:21 016 2 gusting 5 20.0
2019-Sep-15 22:16 016 2 gusting 3 20.0
2019-Sep-15 22:11 016 2 gusting 3 20.6
2019-Sep-15 22:06 016 2 gusting 3 20.6
2019-Sep-15 22:01 016 1 gusting 3 20.6
2019-Sep-15 21:56 016 1 gusting 2 20.6
2019-Sep-15 21:51 016 1 gusting 2 20.6
2019-Sep-15 21:46 016 1 gusting 3 20.6
2019-Sep-15 21:41 016 1 gusting 3 21.1
2019-Sep-15 21:36 016 1 gusting 2 21.1
2019-Sep-15 21:31 016 1 gusting 2 20.6
2019-Sep-15 21:26 016 1 gusting 2 20.6
2019-Sep-15 21:21 016 0 gusting 2 21.1
2019-Sep-15 21:16 016 0 gusting 2 21.1
2019-Sep-15 21:11 016 1 gusting 3 21.1
2019-Sep-15 21:06 016 1 gusting 3 21.1
2019-Sep-15 21:01 016 1 gusting 2 21.1
2019-Sep-15 20:56 016 1 gusting 3 21.7
2019-Sep-15 20:51 016 1 gusting 3 21.7
2019-Sep-15 20:46 016 1 gusting 3 21.7
2019-Sep-15 20:41 016 1 gusting 3 21.7
2019-Sep-15 20:36 016 1 gusting 2 21.7
2019-Sep-15 20:31 016 1 gusting 3 21.7
2019-Sep-15 20:26 016 2 gusting 3 21.7
2019-Sep-15 20:21 016 2 gusting 3 21.7
2019-Sep-15 20:16 016 1 gusting 3 21.7
2019-Sep-15 20:11 016 1 gusting 3 22.2
2019-Sep-15 20:06 016 1 gusting 3 22.2
2019-Sep-15 20:01 016 1 gusting 3 22.2
2019-Sep-15 19:56 016 0 gusting 2 22.2
2019-Sep-15 19:51 016 0 gusting 2 22.8
2019-Sep-15 19:46 016 0 gusting 2 22.8
2019-Sep-15 19:41 016 0 gusting 2 22.8
2019-Sep-15 19:36 016 0 gusting 2 22.8
2019-Sep-15 19:31 016 0 gusting 1 23.3
2019-Sep-15 19:26 016 0 gusting 1 23.3
2019-Sep-15 19:21 016 0 gusting 1 23.3
2019-Sep-15 19:16 016 0 gusting 1 23.3
2019-Sep-15 19:11 016 0 gusting 1 23.9
2019-Sep-15 19:06 016 0 gusting 1 23.9
2019-Sep-15 19:01 016 0 gusting 1 23.9
2019-Sep-15 18:56 016 0 gusting 1 24.4
2019-Sep-15 18:51 016 0 gusting 1 24.4
2019-Sep-15 18:46 016 0 gusting 2 24.4
2019-Sep-15 18:41 016 1 gusting 2 25.0
2019-Sep-15 18:36 016 1 gusting 2 25.0
2019-Sep-15 18:31 016 1 gusting 2 25.0
2019-Sep-15 18:26 016 1 gusting 2 25.6
2019-Sep-15 18:21 016 2 gusting 2 25.6
2019-Sep-15 18:16 016 2 gusting 2 26.1
2019-Sep-15 18:11 016 2 gusting 3 26.1
2019-Sep-15 18:06 016 2 gusting 3 26.7
2019-Sep-15 18:01 016 1 gusting 3 27.2
2019-Sep-15 17:56 016 1 gusting 3 27.2
2019-Sep-15 17:51 016 2 gusting 5 27.8
2019-Sep-15 17:46 016 2 gusting 5 27.8
2019-Sep-15 17:41 016 2 gusting 5 28.3
2019-Sep-15 17:36 016 2 gusting 5 28.3
2019-Sep-15 17:31 016 2 gusting 6 28.9
2019-Sep-15 17:26 015 2 gusting 6 29.4
2019-Sep-15 17:21 020 3 gusting 6 29.4
2019-Sep-15 17:16 023 3 gusting 6 29.4
2019-Sep-15 17:11 017 2 gusting 6 29.4
2019-Sep-15 17:06 007 2 gusting 6 30.0
2019-Sep-15 17:01 022 3 gusting 6 30.0
2019-Sep-15 16:56 006 3 gusting 7 30.0
2019-Sep-15 16:51 359 2 gusting 7 30.0
2019-Sep-15 16:46 011 2 gusting 5 30.6
2019-Sep-15 16:41 013 2 gusting 7 30.6
2019-Sep-15 16:36 020 3 gusting 7 30.6
2019-Sep-15 16:31 016 3 gusting 6 30.6
2019-Sep-15 16:26 010 3 gusting 6 30.6
2019-Sep-15 16:21 020 2 gusting 6 30.6
2019-Sep-15 16:16 022 3 gusting 6 30.6
2019-Sep-15 16:11 044 4 gusting 7 30.6
2019-Sep-15 16:06 006 3 gusting 7 30.6
2019-Sep-15 16:01 334 2 gusting 6 31.1
2019-Sep-15 15:56 043 3 gusting 6 31.7
2019-Sep-15 15:51 048 2 gusting 6 31.1
2019-Sep-15 15:46 005 2 gusting 6 31.7
2019-Sep-15 15:41 351 3 gusting 7 31.1
2019-Sep-15 15:36 061 3 gusting 7 31.1
2019-Sep-15 15:31 017 3 gusting 7 30.6
2019-Sep-15 15:26 350 3 gusting 7 31.1
2019-Sep-15 15:21 014 3 gusting 8 31.1
2019-Sep-15 15:16 044 3 gusting 8 31.1
2019-Sep-15 15:11 046 3 gusting 7 31.1
2019-Sep-15 15:06 016 3 gusting 7 31.1
2019-Sep-15 15:01 041 2 gusting 7 31.1
2019-Sep-15 14:56 003 2 gusting 6 31.1
2019-Sep-15 14:51 009 2 gusting 8 31.1
2019-Sep-15 14:46 022 2 gusting 8 31.1
2019-Sep-15 14:41 012 2 gusting 7 31.1
2019-Sep-15 14:36 026 2 gusting 7 31.1
2019-Sep-15 14:31 359 1 gusting 6 31.1
2019-Sep-15 14:26 025 0 gusting 4 31.1
2019-Sep-15 14:21 072 1 gusting 4 31.1
2019-Sep-15 14:16 057 1 gusting 6 31.1
2019-Sep-15 14:11 060 2 gusting 6 31.1
2019-Sep-15 14:06 039 1 gusting 6 30.6
2019-Sep-15 14:01 008 0 gusting 5 30.6
2019-Sep-15 13:56 050 1 gusting 6 30.6
2019-Sep-15 13:51 050 2 gusting 6 30.6
2019-Sep-15 13:46 358 1 gusting 5 30.6
2019-Sep-15 13:41 045 1 gusting 7 30.6
2019-Sep-15 13:36 045 2 gusting 7 30.6
2019-Sep-15 13:31 019 2 gusting 6 30.6
2019-Sep-15 13:26 027 1 gusting 6 30.6
2019-Sep-15 13:21 061 1 gusting 6 30.0
2019-Sep-15 13:16 045 2 gusting 7 30.0
2019-Sep-15 13:11 053 2 gusting 7 30.0
2019-Sep-15 13:06 332 3 gusting 9 30.0
2019-Sep-15 13:01 053 4 gusting 9 29.4
2019-Sep-15 12:56 354 3 gusting 7 29.4
2019-Sep-15 12:51 011 3 gusting 7 29.4
2019-Sep-15 12:46 008 2 gusting 6 29.4
2019-Sep-15 12:41 334 2 gusting 7 29.4
2019-Sep-15 12:36 072 2 gusting 8 29.4
2019-Sep-15 12:31 062 3 gusting 9 29.4
2019-Sep-15 12:26 061 4 gusting 9 29.4
2019-Sep-15 12:21 051 2 gusting 7 29.4
2019-Sep-15 12:16 054 2 gusting 7 29.4
2019-Sep-15 12:11 065 2 gusting 7 29.4
2019-Sep-15 12:06 068 2 gusting 7 29.4
2019-Sep-15 12:01 030 2 gusting 7 28.9
2019-Sep-15 11:56 008 3 gusting 8 28.9
2019-Sep-15 11:51 066 3 gusting 8 28.9
2019-Sep-15 11:46 043 4 gusting 8 28.3
2019-Sep-15 11:41 041 5 gusting 9 28.3
2019-Sep-15 11:36 037 5 gusting 9 28.3
2019-Sep-15 11:31 011 4 gusting 8 28.3
2019-Sep-15 11:26 010 4 gusting 8 28.3
2019-Sep-15 11:21 053 5 gusting 9 28.3
2019-Sep-15 11:16 038 4 gusting 10 27.8
2019-Sep-15 11:11 063 4 gusting 10 27.8
2019-Sep-15 11:06 027 5 gusting 10 27.8
2019-Sep-15 11:01 068 5 gusting 10 27.2
2019-Sep-15 10:56 064 5 gusting 10 27.2
2019-Sep-15 10:51 043 5 gusting 8 27.2
2019-Sep-15 10:46 060 5 gusting 8 27.2
2019-Sep-15 10:41 074 5 gusting 11 26.7
2019-Sep-15 10:31 051 4 gusting 9 26.7
2019-Sep-15 10:26 043 5 gusting 9 26.7
2019-Sep-15 10:21 037 5 gusting 11 26.1
2019-Sep-15 10:16 059 6 gusting 11 26.1
2019-Sep-15 10:11 045 6 gusting 10 25.6
2019-Sep-15 10:06 072 5 gusting 10 25.6
2019-Sep-15 10:01 051 5 gusting 8 25.6